Location: Rounton
(54.4000°N, 1.3500°W)
Time: 02:09:02
(UTC+00:00)

Vanguard 3 - Pass Details

Date: 04 December 2021
Orbit: 508 x 3260 km, 33.3° (Epoch: 19 January)

Event Time Altitude Azimuth Distance (km) Brightness Sun altitude
Rises 06:27:46 0° 252° (WSW) 7,225 11.5 -13.5°
Reaches altitude 10° 06:33:32 10° 244° (WSW) 6,117 11.2 -12.7°
Maximum altitude 06:48:32 32° 192° (SSW) 3,863 10.7 -10.7°
Drops below altitude 10° 06:59:25 10° 136° (SE) 4,422 12.2 -9.2°
Sets 07:02:48 0° 126° (SE) 5,052 13.3 -8.8°
